Weather History for KCUT - July, 2012

Change the Weather History Date:

Tuesday, July 17, 2012

  Actual Average Record
Temperature  
Mean Temperature 71 °F 66 °F  
Max Temperature 83 °F 80 °F 96 °F (1966)
Min Temperature 58 °F 52 °F 35 °F (1950)
Degree Days  
Heating Degree Days 0 2  
Month to date heating degree days 6 38  
Since 1 June heating degree days 110 258  
Since 1 July heating degree days 6 38  
Cooling Degree Days 6 3  
Month to date cooling degree days 96 41  
Year to date cooling degree days 169 67  
Since 1 June cooling degree days 169 66  
Growing Degree Days 20 (Base 50)    
Moisture  
Dew Point 57 °F    
Average Humidity 64    
Maximum Humidity 90    
Minimum Humidity 37    
Precipitation  
Precipitation 0.08 in 0.09 in 1.26 in (1968)
Month to date precipitation 1.24 1.36  
Year to date precipitation 8.51 11.69  
Sea Level Pressure  
Sea Level Pressure 29.84 in    
Wind  
Wind Speed 6 mph (North)    
Max Wind Speed 21 mph    
Max Gust Speed 24 mph    
Visibility 10 miles    
Events Rain    
T = Trace of Precipitation, MM = Missing Value Source: NWS Daily Summary

Daily Weather History Graph

Daily Weather History Graph

Search for Another Location

Airport or City:

Trip Planner

Search our weather history database for the weather conditions in past years. The results will help you decide how hot, cold, wet, or windy it might be!

Date:

Astronomy

Jul. 17, 2012 Rise Set
Actual Time 5:28 AM MDT 8:32 PM MDT
Civil Twilight 4:54 AM MDT 9:06 PM MDT
Nautical Twilight 4:10 AM MDT 9:50 PM MDT
Astronomical Twilight 3:17 AM MDT 10:42 PM MDT
Moon 4:07 AM MDT (7/17) 7:22 PM MDT (7/17)
Length of Visible Light 16h 12m
Length of Day
15h 03m
Waning Crescent, 2% of the Moon is Illuminated
Jul 17
Waning Crescent
Jul 18
New
Jul 26
First Quarter
Aug 1
Full
Aug 9
Last Quarter

Hourly Weather History & Observations

Time (MDT) Temp. Heat Index Dew Point Humidity Pressure Visibility Wind Dir Wind Speed Gust Speed Precip Events Conditions
12:53 AM 64.9 °F - 57.9 °F 78% 29.78 in 10.0 mi NNW 3.5 mph - N/A   Scattered Clouds
1:53 AM 62.1 °F - 59.0 °F 90% 29.77 in 10.0 mi NW 4.6 mph - N/A   Clear
2:53 AM 60.1 °F - 57.0 °F 90% 29.74 in 10.0 mi West 4.6 mph - N/A   Clear
3:53 AM 60.1 °F - 55.9 °F 86% 29.75 in 10.0 mi WNW 3.5 mph - N/A   Clear
4:53 AM 59.0 °F - 55.0 °F 87% 29.78 in 10.0 mi ENE 5.8 mph - N/A   Clear
5:53 AM 60.1 °F - 55.9 °F 86% 29.80 in 10.0 mi North 5.8 mph - N/A   Mostly Cloudy
6:53 AM 64.0 °F - 57.9 °F 80% 29.81 in 10.0 mi NNE 5.8 mph - N/A   Partly Cloudy
7:53 AM 66.0 °F - 57.9 °F 75% 29.82 in 10.0 mi NNE 9.2 mph 18.4 mph N/A   Clear
8:53 AM 66.0 °F - 57.9 °F 75% 29.85 in 10.0 mi North 3.5 mph - N/A   Clear
9:53 AM 66.9 °F - 57.9 °F 73% 29.89 in 10.0 mi North 5.8 mph - N/A   Clear
10:53 AM 70.0 °F - 57.9 °F 65% 29.90 in 10.0 mi NW 3.5 mph - N/A   Clear
11:53 AM 71.1 °F - 57.9 °F 63% 29.90 in 10.0 mi West 9.2 mph - N/A   Partly Cloudy
12:53 PM 73.0 °F - 57.9 °F 59% 29.89 in 10.0 mi SW 5.8 mph - N/A   Mostly Cloudy
1:53 PM 73.9 °F - 57.9 °F 57% 29.88 in 10.0 mi Calm Calm - N/A   Clear
2:53 PM 81.0 °F 80.4 °F 53.1 °F 38% 29.85 in 10.0 mi Variable 5.8 mph - N/A   Clear
3:53 PM 82.0 °F 81.2 °F 53.1 °F 37% 29.84 in 10.0 mi Variable 4.6 mph - N/A   Scattered Clouds
4:53 PM 79.0 °F - 57.0 °F 47% 29.84 in 10.0 mi East 10.4 mph - N/A   Mostly Cloudy
5:53 PM 77.0 °F - 57.0 °F 50% 29.83 in 10.0 mi ENE 11.5 mph - N/A   Mostly Cloudy
6:53 PM 75.9 °F - 57.0 °F 52% 29.84 in 10.0 mi ENE 10.4 mph 18.4 mph N/A   Clear
7:53 PM 70.0 °F - 53.1 °F 55% 29.87 in 10.0 mi NNE 11.5 mph 16.1 mph 0.00 in Rain Light Rain
8:53 PM 64.9 °F - 59.0 °F 81% 29.88 in 10.0 mi NW 3.5 mph - 0.08 in   Clear
9:53 PM 63.0 °F - 59.0 °F 87% 29.91 in 10.0 mi ENE 3.5 mph - N/A   Clear
10:53 PM 64.0 °F - 59.0 °F 84% 29.91 in 10.0 mi NNE 4.6 mph - N/A   Partly Cloudy